Terug naar catalogus

DELTA 1 DEB

ActiefSSO
NORAD 12250·DEBRIS·🇺🇸 United States

Gelanceerd Mar 5, 1978 vanaf Vandenberg Space Force Base

Loading…

Volgende Passages (komende 24 uur)

TLE

VersSource: Space-Track

Epoch: Sep 14, 2026, 14:14 UTC

1 12250U 78026CT  26257.59330122  .00000518  00000-0  21546-3 0  9995
2 12250  98.7884 292.7361 0022971 174.1824 338.8772 14.30572603360697

Volg DELTA 1 DEB in realtime met AllMySat

Download on the App Store